TimeEDT,TemperatureF,Dew PointF,Humidity,Sea Level PressureIn,VisibilityMPH,Wind Direction,Wind SpeedMPH,Gust SpeedMPH,PrecipitationIn,Events,Conditions,WindDirDegrees,DateUTC
12:15 AM,77.0,69.8,78,29.89,10.0,Calm,Calm,-,N/A,,Mostly Cloudy,0,2013-05-23 04:15:00
12:35 AM,75.2,68.0,78,29.88,10.0,South,3.5,-,N/A,,Mostly Cloudy,190,2013-05-23 04:35:00
12:55 AM,73.4,68.0,83,29.88,10.0,South,4.6,-,N/A,,Scattered Clouds,180,2013-05-23 04:55:00
1:15 AM,73.4,68.0,83,29.88,10.0,SW,4.6,-,N/A,,Scattered Clouds,220,2013-05-23 05:15:00
1:35 AM,73.4,68.0,83,29.87,10.0,SSW,3.5,-,N/A,,Scattered Clouds,200,2013-05-23 05:35:00
1:55 AM,71.6,68.0,88,29.86,10.0,Calm,Calm,-,N/A,,Scattered Clouds,0,2013-05-23 05:55:00
2:15 AM,71.6,68.0,88,29.85,7.0,Calm,Calm,-,N/A,,Scattered Clouds,0,2013-05-23 06:15:00
2:35 AM,71.6,68.0,88,29.85,10.0,SE,4.6,-,N/A,,Scattered Clouds,140,2013-05-23 06:35:00
2:55 AM,71.6,68.0,88,29.85,7.0,South,4.6,-,N/A,,Clear,180,2013-05-23 06:55:00
3:15 AM,71.6,68.0,88,29.85,10.0,South,3.5,-,N/A,,Clear,180,2013-05-23 07:15:00
3:35 AM,71.6,68.0,88,29.85,7.0,SSW,6.9,-,N/A,,Clear,210,2013-05-23 07:35:00
3:55 AM,71.6,68.0,88,29.85,10.0,SW,6.9,-,N/A,,Scattered Clouds,220,2013-05-23 07:55:00
4:15 AM,71.6,68.0,88,29.86,10.0,SSW,8.1,-,N/A,,Scattered Clouds,210,2013-05-23 08:15:00
4:35 AM,71.6,68.0,88,29.86,10.0,SW,6.9,-,N/A,,Clear,220,2013-05-23 08:35:00
4:55 AM,71.6,68.0,88,29.86,10.0,SSW,5.8,-,N/A,,Clear,200,2013-05-23 08:55:00
5:15 AM,71.6,68.0,88,29.87,10.0,SSW,8.1,-,N/A,,Clear,210,2013-05-23 09:15:00
5:35 AM,71.6,68.0,88,29.88,10.0,SSW,10.4,-,N/A,,Scattered Clouds,200,2013-05-23 09:35:00
5:55 AM,71.6,68.0,88,29.88,10.0,SSW,6.9,-,N/A,,Mostly Cloudy,200,2013-05-23 09:55:00
6:15 AM,71.6,68.0,88,29.88,10.0,SW,9.2,-,N/A,,Overcast,220,2013-05-23 10:15:00
6:35 AM,71.6,68.0,88,29.89,10.0,SSW,8.1,-,N/A,,Overcast,210,2013-05-23 10:35:00
6:55 AM,71.6,68.0,88,29.89,7.0,SSW,8.1,-,N/A,,Overcast,210,2013-05-23 10:55:00
7:15 AM,71.6,68.0,88,29.89,7.0,SW,6.9,-,N/A,,Mostly Cloudy,220,2013-05-23 11:15:00
7:35 AM,71.6,68.0,88,29.89,10.0,SW,8.1,-,N/A,,Mostly Cloudy,220,2013-05-23 11:35:00
7:55 AM,73.4,68.0,83,29.89,10.0,South,8.1,-,N/A,,Mostly Cloudy,180,2013-05-23 11:55:00
8:15 AM,73.4,68.0,83,29.89,10.0,SSW,8.1,-,N/A,,Mostly Cloudy,200,2013-05-23 12:15:00
8:35 AM,73.4,68.0,83,29.88,10.0,SSW,9.2,-,N/A,,Mostly Cloudy,200,2013-05-23 12:35:00
8:55 AM,73.4,68.0,83,29.88,10.0,South,9.2,-,N/A,,Overcast,190,2013-05-23 12:55:00
9:15 AM,73.4,68.0,83,29.89,10.0,SW,8.1,-,N/A,,Overcast,220,2013-05-23 13:15:00
9:35 AM,73.4,68.0,83,29.89,10.0,SSW,6.9,-,N/A,,Mostly Cloudy,200,2013-05-23 13:35:00
9:55 AM,73.4,68.0,83,29.89,10.0,SSW,11.5,-,N/A,,Mostly Cloudy,200,2013-05-23 13:55:00
10:15 AM,73.4,68.0,83,29.89,10.0,SW,12.7,17.3,N/A,,Mostly Cloudy,230,2013-05-23 14:15:00
10:55 AM,77.0,68.0,74,29.89,10.0,SSW,12.7,19.6,N/A,,Mostly Cloudy,210,2013-05-23 14:55:00
11:15 AM,75.2,68.0,78,29.89,10.0,SSW,11.5,20.7,N/A,,Mostly Cloudy,210,2013-05-23 15:15:00
11:35 AM,73.4,68.0,83,29.89,10.0,SW,13.8,17.3,N/A,,Mostly Cloudy,220,2013-05-23 15:35:00
11:55 AM,75.2,68.0,78,29.88,10.0,SW,6.9,-,N/A,,Mostly Cloudy,220,2013-05-23 15:55:00
12:15 PM,78.8,68.0,69,29.88,10.0,SW,10.4,17.3,N/A,,Mostly Cloudy,220,2013-05-23 16:15:00
12:35 PM,75.2,68.0,78,29.88,4.0,SW,11.5,17.3,0.04,,Mostly Cloudy,230,2013-05-23 16:35:00
12:55 PM,71.6,69.8,94,29.87,7.0,WSW,5.8,-,0.06,,Overcast,250,2013-05-23 16:55:00
1:15 PM,77.0,71.6,83,29.86,10.0,WSW,5.8,-,N/A,,Scattered Clouds,240,2013-05-23 17:15:00
1:35 PM,77.0,69.8,78,29.84,10.0,SW,9.2,-,N/A,,Scattered Clouds,230,2013-05-23 17:35:00
1:55 PM,80.6,69.8,70,29.83,10.0,WSW,8.1,-,N/A,,Scattered Clouds,240,2013-05-23 17:55:00
2:15 PM,80.6,68.0,65,29.83,10.0,SW,11.5,17.3,N/A,,Scattered Clouds,230,2013-05-23 18:15:00
2:35 PM,80.6,68.0,65,29.83,10.0,WSW,12.7,19.6,N/A,,Scattered Clouds,240,2013-05-23 18:35:00
2:55 PM,80.6,66.2,61,29.82,10.0,WSW,10.4,16.1,N/A,,Scattered Clouds,240,2013-05-23 18:55:00
3:15 PM,78.8,64.4,61,29.81,10.0,SW,9.2,-,N/A,,Scattered Clouds,220,2013-05-23 19:15:00
3:35 PM,80.6,66.2,61,29.81,10.0,South,8.1,-,N/A,,Scattered Clouds,180,2013-05-23 19:35:00
3:55 PM,80.6,68.0,65,29.80,10.0,SSW,8.1,-,N/A,,Scattered Clouds,210,2013-05-23 19:55:00
4:15 PM,77.0,68.0,74,29.80,10.0,SSE,11.5,20.7,N/A,,Mostly Cloudy,160,2013-05-23 20:15:00
4:35 PM,73.4,68.0,83,29.80,10.0,SSE,8.1,16.1,N/A,,Mostly Cloudy,160,2013-05-23 20:35:00
4:55 PM,71.6,68.0,88,29.81,0.8,South,4.6,17.3,0.19,,Overcast,180,2013-05-23 20:55:00
5:15 PM,71.6,68.0,88,29.80,0.8,SSW,4.6,-,0.10,,Overcast,210,2013-05-23 21:15:00
5:35 PM,69.8,68.0,94,29.78,1.5,NNW,5.8,-,0.25,,Overcast,330,2013-05-23 21:35:00
6:15 PM,71.6,69.8,94,29.79,10.0,South,9.2,-,N/A,,Mostly Cloudy,180,2013-05-23 22:15:00
6:35 PM,71.6,69.8,94,29.79,5.0,South,4.6,-,0.01,,Overcast,180,2013-05-23 22:35:00
6:55 PM,71.6,68.0,88,29.78,7.0,SSW,8.1,-,0.02,,Mostly Cloudy,200,2013-05-23 22:55:00
7:15 PM,71.6,68.0,88,29.77,10.0,South,4.6,-,N/A,,Scattered Clouds,170,2013-05-23 23:15:00
7:35 PM,71.6,68.0,88,29.78,10.0,South,9.2,-,N/A,,Clear,180,2013-05-23 23:35:00
7:55 PM,71.6,68.0,88,29.79,10.0,South,8.1,-,N/A,,Scattered Clouds,170,2013-05-23 23:55:00
8:15 PM,71.6,68.0,88,29.79,10.0,South,4.6,-,N/A,,Mostly Cloudy,170,2013-05-24 00:15:00
8:35 PM,71.6,68.0,88,29.79,10.0,South,6.9,-,N/A,,Scattered Clouds,170,2013-05-24 00:35:00
8:55 PM,71.6,68.0,88,29.78,10.0,South,5.8,-,N/A,,Mostly Cloudy,180,2013-05-24 00:55:00
9:15 PM,69.8,68.0,94,29.77,10.0,South,8.1,-,N/A,,Mostly Cloudy,180,2013-05-24 01:15:00
9:35 PM,69.8,66.2,88,29.77,10.0,South,5.8,-,N/A,,Overcast,180,2013-05-24 01:35:00
9:55 PM,69.8,66.2,88,29.77,10.0,South,8.1,-,N/A,,Overcast,170,2013-05-24 01:55:00
10:15 PM,69.8,68.0,94,29.77,10.0,South,4.6,-,N/A,,Overcast,170,2013-05-24 02:15:00
10:35 PM,69.8,68.0,94,29.77,10.0,Calm,Calm,-,N/A,,Overcast,0,2013-05-24 02:35:00
10:55 PM,69.8,68.0,94,29.77,10.0,Calm,Calm,-,N/A,,Overcast,0,2013-05-24 02:55:00
11:15 PM,68.0,64.4,88,29.77,7.0,WSW,6.9,-,0.03,,Overcast,240,2013-05-24 03:15:00
11:35 PM,64.4,62.6,94,29.76,3.0,Calm,Calm,-,0.16,,Overcast,0,2013-05-24 03:35:00
11:55 PM,64.4,62.6,94,29.77,10.0,SSW,3.5,-,0.16,,Mostly Cloudy,210,2013-05-24 03:55:00